• In Uzbekistan
  • List of Countries
  • For 7 days
  • Water Temperature
  • Satellite Maps
  • Weather Map
  • Weather Widgets
  • user-avatar
    Login

    Hourly Weather Eschborn

    Today, 18 July, Wednesday

    Time Temperature Precipitation Wind Pressure Humidity
    00:00 +20°C° 0 mm 2 mps 750 mmHg 70%
    01:00 +19°C° 0 mm 2 mps 751 mmHg 72%
    02:00 +18°C° 0 mm 2 mps 751 mmHg 74%
    03:00 +19°C° 0 mm 1 mps 751 mmHg 75%
    04:00 +18°C° 0 mm 1 mps 751 mmHg 77%
    05:00 +19°C° 0 mm 1 mps 751 mmHg 74%
    06:00 +19°C° 0 mm 1 mps 751 mmHg 71%
    07:00 +20°C° 0 mm 1 mps 752 mmHg 68%
    08:00 +22°C° 0 mm 1 mps 752 mmHg 61%
    09:00 +23°C° 0 mm 2 mps 752 mmHg 54%
    10:00 +25°C° 0 mm 2 mps 752 mmHg 47%
    11:00 +26°C° 0 mm 2 mps 752 mmHg 44%
    12:00 +27°C° 0 mm 2 mps 752 mmHg 41%
    13:00 +28°C° 0 mm 2 mps 751 mmHg 38%
    14:00 +28°C° 0 mm 2 mps 751 mmHg 38%
    15:00 +28°C° 0 mm 2 mps 751 mmHg 37%
    16:00 +29°C° 0 mm 2 mps 751 mmHg 36%
    17:00 +28°C° 0 mm 2 mps 751 mmHg 42%
    18:00 +27°C° 0 mm 2 mps 751 mmHg 47%
    19:00 +26°C° 0 mm 2 mps 751 mmHg 52%
    20:00 +24°C° 0 mm 2 mps 751 mmHg 57%
    21:00 +23°C° 0 mm 2 mps 752 mmHg 61%
    22:00 +20°C° 0 mm 2 mps 752 mmHg 66%
    23:00 +19°C° 0 mm 2 mps 752 mmHg 69%

    Tomorrow, 19 July, Thursday

    Time Temperature Precipitation Wind Pressure Humidity
    00:00 +19°C° 0 mm 1 mps 752 mmHg 72%
    01:00 +19°C° 0 mm 1 mps 752 mmHg 75%
    02:00 +18°C° 0 mm 1 mps 752 mmHg 76%
    03:00 +18°C° 0 mm 1 mps 752 mmHg 78%
    04:00 +16°C° 0 mm 1 mps 752 mmHg 80%
    05:00 +18°C° 0 mm 1 mps 752 mmHg 76%
    06:00 +19°C° 0 mm 1 mps 752 mmHg 72%
    07:00 +20°C° 0 mm 1 mps 752 mmHg 68%
    08:00 +22°C° 0 mm 1 mps 752 mmHg 61%
    09:00 +24°C° 0 mm 1 mps 752 mmHg 54%
    10:00 +26°C° 0 mm 2 mps 752 mmHg 48%
    11:00 +27°C° 0 mm 2 mps 752 mmHg 45%
    12:00 +28°C° 0 mm 2 mps 752 mmHg 41%
    13:00 +29°C° 0 mm 2 mps 752 mmHg 38%
    14:00 +29°C° 0 mm 1 mps 751 mmHg 37%
    15:00 +29°C° 0 mm 1 mps 751 mmHg 37%
    16:00 +29°C° 0 mm 1 mps 751 mmHg 36%
    17:00 +28°C° 0 mm 1 mps 751 mmHg 41%
    18:00 +27°C° 0 mm 2 mps 751 mmHg 46%
    19:00 +26°C° 0 mm 2 mps 751 mmHg 52%
    20:00 +25°C° 0 mm 2 mps 751 mmHg 55%
    21:00 +23°C° 0 mm 2 mps 751 mmHg 58%
    22:00 +21°C° 0 mm 2 mps 751 mmHg 61%
    23:00 +20°C° 0 mm 2 mps 751 mmHg 63%

    Day after tomorrow, 20 July, Friday

    Time Temperature Precipitation Wind Pressure Humidity
    00:00 +19°C° 0 mm 2 mps 751 mmHg 64%
    01:00 +19°C° 0 mm 2 mps 751 mmHg 66%
    02:00 +18°C° 0 mm 2 mps 751 mmHg 68%
    03:00 +19°C° 0 mm 1 mps 750 mmHg 70%
    04:00 +18°C° 0 mm 1 mps 750 mmHg 71%
    05:00 +19°C° 0 mm 1 mps 750 mmHg 69%
    06:00 +20°C° 0 mm 1 mps 750 mmHg 67%
    07:00 +21°C° 0 mm 1 mps 750 mmHg 65%
    08:00 +23°C° 0 mm 1 mps 750 mmHg 59%
    09:00 +25°C° 0 mm 2 mps 750 mmHg 53%
    10:00 +27°C° 0 mm 2 mps 750 mmHg 46%
    11:00 +28°C° 0 mm 2 mps 749 mmHg 43%
    12:00 +29°C° 0 mm 2 mps 749 mmHg 40%
    13:00 +30°C° 0 mm 2 mps 748 mmHg 37%
    14:00 +30°C° 0 mm 2 mps 748 mmHg 37%
    15:00 +30°C° 0 mm 2 mps 748 mmHg 37%
    16:00 +30°C° 0 mm 1 mps 747 mmHg 38%
    17:00 +29°C° 0.1 mm 1 mps 747 mmHg 45%
    18:00 +28°C° 0.1 mm 2 mps 746 mmHg 52%
    19:00 +26°C° 0.1 mm 2 mps 746 mmHg 59%
    20:00 +25°C° 0.3 mm 1 mps 746 mmHg 63%
    21:00 +24°C° 0.3 mm 1 mps 746 mmHg 66%
    22:00 +23°C° 0.3 mm 1 mps 746 mmHg 70%
    23:00 +22°C° 0.3 mm 1 mps 746 mmHg 72%

    21 July, Saturday

    Time Temperature Precipitation Wind Pressure Humidity
    00:00 +21°C° 0.3 mm 1 mps 746 mmHg 74%
    01:00 +21°C° 0.3 mm 1 mps 746 mmHg 77%
    02:00 +21°C° 0.4 mm 1 mps 746 mmHg 78%
    03:00 +20°C° 0.4 mm 1 mps 746 mmHg 80%
    04:00 +20°C° 0.4 mm 1 mps 745 mmHg 82%
    05:00 +20°C° 0.1 mm 1 mps 746 mmHg 81%
    06:00 +21°C° 0.1 mm 1 mps 746 mmHg 81%
    07:00 +21°C° 0.1 mm 1 mps 746 mmHg 81%
    08:00 +23°C° 0.1 mm 1 mps 746 mmHg 74%
    09:00 +25°C° 0.1 mm 1 mps 746 mmHg 68%
    10:00 +27°C° 0.1 mm 1 mps 746 mmHg 61%
    11:00 +27°C° 0.6 mm 1 mps 746 mmHg 61%
    12:00 +28°C° 0.6 mm 1 mps 746 mmHg 60%
    13:00 +28°C° 0.6 mm 1 mps 746 mmHg 60%
    14:00 +28°C° 0.8 mm 2 mps 746 mmHg 61%
    15:00 +28°C° 0.8 mm 2 mps 745 mmHg 62%
    16:00 +28°C° 0.8 mm 2 mps 745 mmHg 62%
    17:00 +27°C° 0.4 mm 2 mps 745 mmHg 66%
    18:00 +26°C° 0.4 mm 2 mps 745 mmHg 70%
    19:00 +25°C° 0.4 mm 2 mps 745 mmHg 74%
    20:00 +24°C° 0.4 mm 2 mps 746 mmHg 78%
    21:00 +23°C° 0.4 mm 2 mps 746 mmHg 82%
    22:00 +20°C° 0.4 mm 2 mps 746 mmHg 86%
    23:00 +20°C° 0.3 mm 2 mps 746 mmHg 87%

    22 July, Sunday

    Time Temperature Precipitation Wind Pressure Humidity
    00:00 +19°C° 0.3 mm 2 mps 747 mmHg 88%
    01:00 +19°C° 0.3 mm 2 mps 747 mmHg 89%
    02:00 +19°C° 0.2 mm 2 mps 747 mmHg 89%
    03:00 +18°C° 0.2 mm 2 mps 747 mmHg 90%
    04:00 +18°C° 0.2 mm 2 mps 747 mmHg 91%
    05:00 +18°C° 0.1 mm 2 mps 748 mmHg 88%
    06:00 +19°C° 0.1 mm 2 mps 748 mmHg 86%
    07:00 +19°C° 0.1 mm 3 mps 748 mmHg 83%
    08:00 +20°C° 0 mm 3 mps 749 mmHg 76%
    09:00 +22°C° 0 mm 3 mps 749 mmHg 69%
    10:00 +24°C° 0 mm 3 mps 749 mmHg 62%
    11:00 +25°C° 0.1 mm 3 mps 749 mmHg 59%
    12:00 +26°C° 0.1 mm 3 mps 749 mmHg 56%
    13:00 +27°C° 0.1 mm 3 mps 749 mmHg 53%
    14:00 +27°C° 0.2 mm 3 mps 749 mmHg 52%
    15:00 +27°C° 0.2 mm 3 mps 749 mmHg 51%
    16:00 +28°C° 0.2 mm 3 mps 749 mmHg 50%
    17:00 +27°C° 0.1 mm 3 mps 749 mmHg 53%
    18:00 +26°C° 0.1 mm 3 mps 749 mmHg 56%
    19:00 +25°C° 0.1 mm 3 mps 750 mmHg 59%
    20:00 +24°C° 0 mm 2 mps 750 mmHg 64%
    21:00 +21°C° 0 mm 2 mps 750 mmHg 69%
    22:00 +19°C° 0 mm 2 mps 751 mmHg 73%
    23:00 +20°C° 0 mm 1 mps 751 mmHg 76%

    23 July, Monday

    Time Temperature Precipitation Wind Pressure Humidity
    00:00 +19°C° 0 mm 1 mps 751 mmHg 78%
    01:00 +19°C° 0 mm 1 mps 751 mmHg 80%
    02:00 +18°C° 0 mm 1 mps 751 mmHg 81%
    03:00 +18°C° 0 mm 1 mps 751 mmHg 82%
    04:00 +16°C° 0 mm 1 mps 752 mmHg 83%
    05:00 +18°C° 0 mm 1 mps 752 mmHg 80%
    06:00 +17°C° 0 mm 0 mps 752 mmHg 76%
    07:00 +19°C° 0 mm 0 mps 752 mmHg 73%
    08:00 +20°C° 0 mm 0 mps 752 mmHg 66%
    09:00 +24°C° 0 mm 1 mps 752 mmHg 58%
    10:00 +26°C° 0 mm 1 mps 752 mmHg 51%
    11:00 +27°C° 0 mm 1 mps 752 mmHg 47%
    12:00 +28°C° 0 mm 1 mps 751 mmHg 44%
    13:00 +29°C° 0 mm 1 mps 751 mmHg 40%
    14:00 +29°C° 0 mm 1 mps 751 mmHg 40%
    15:00 +30°C° 0 mm 2 mps 750 mmHg 40%
    16:00 +30°C° 0 mm 2 mps 750 mmHg 39%
    17:00 +29°C° 0 mm 2 mps 750 mmHg 44%
    18:00 +28°C° 0 mm 2 mps 750 mmHg 50%
    19:00 +27°C° 0 mm 2 mps 750 mmHg 55%
    20:00 +26°C° 0 mm 2 mps 750 mmHg 59%
    21:00 +24°C° 0 mm 2 mps 750 mmHg 64%
    22:00 +23°C° 0 mm 2 mps 750 mmHg 68%
    23:00 +21°C° 0 mm 2 mps 750 mmHg 70%
    Show more